Regional Weather Roundup
Issued by NWS

Home | Current Version | Previous Version | Text Only | Print | Product List | Glossary Off
Versions: 1 2 3 4 5 6 7 8 9 10 11 12 13 14 15 16 17 18 19 20 21 22 23 24 25 26 27 28 29 30 31 32 33 34 35 36 37 38 39 40 41 42 43 44 45 46 47 48 49 50

000
ASUS44 KMEG 210410
RWRTN
TENNESSEE HOURLY STATE WEATHER ROUNDUP
NATIONAL WEATHER SERVICE MEMPHIS TN
1000 PM CST TUE FEB 20 2018

TNZ002-004-019-021-049-052-054-088>092-210500-
WEST TENNESSEE

CITY           SKY/WX    TMP DP  RH WIND       PRES   REMARKS
MEMPHIS INTL   MOCLDY    73  63  70 S20G28    30.07R
NWS MEMPHIS      N/A     73 N/A N/A MISG        N/A
JACKSON        FAIR      73  62  68 S15G24    30.10S
DYERSBURG      FAIR      72  62  71 S14G21    30.06S
SOMERVILLE     CLEAR     72  63  73 S13G22    30.08S
COVINGTON      PTCLDY    72  63  73 S10G21    30.07S
UNION CITY     CLEAR     72  61  68 S17       30.05S
BOLIVAR        PTCLDY    72  61  68 SE14G21   30.12R
PARIS          PTCLDY    72  61  68 S14       30.09S
HUNTINGDON     PTCLDY    72  61  68 S14G24    30.10R
LEXINGTON      PTCLDY    72  61  68 S10G21    30.14S
SELMER         CLEAR     70  61  73 S13       30.14S
SAVANNAH       PTCLDY    72  61  68 S8        30.15S
$$

TNZ008-025-027-028-033-062-065-066-210500-
NORTH MIDDLE TENNESSEE

CITY           SKY/WX    TMP DP  RH WIND       PRES   REMARKS
NASHVILLE      FAIR      71  60  68 S14       30.20R
PORTLAND       CLOUDY    70  61  73 S15G24    30.17S
CLARKSVILLE    FAIR      72  57  59 S12G18    30.12S
SMYRNA         FAIR      70  61  73 S9        30.21R
COOKEVILLE     CLEAR     68  61  77 S12G18    30.24S
GALLATIN       CLOUDY    72  61  68 S16       30.20S
CROSSVILLE     CLOUDY    66  58  75 S15G25    30.30S
$$

TNZ061-075-076-078-094-096-097-210500-
SOUTH MIDDLE TENNESSEE

CITY           SKY/WX    TMP DP  RH WIND       PRES   REMARKS
FAYETTEVILLE   MOCLDY    70  63  78 S14G20    30.25R
TULLAHOMA      CLEAR     70  61  73 S10G18    30.24S
WINCHESTER     CLEAR     70  61  73 S18       30.26S
MCMINNVILLE    PTCLDY    70  61  73 S9G15     30.24S
COLUMBIA       CLEAR     72  63  73 S8G20     30.17R
SHELBYVILLE    CLEAR     70  61  73 S13G21    30.23R
$$

TNZ017-018-042-046-047-210500-
NORTHEAST TENNESSEE

CITY           SKY/WX    TMP DP  RH WIND       PRES   REMARKS
TRI CITIES     FAIR      64  52  64 SE7       30.35F
ELIZABETHTON   FAIR      55  52  88 CALM      30.38S
$$

TNZ012-013-036-069-073-074-210500-
CENTRAL EAST TENNESSEE

CITY           SKY/WX    TMP DP  RH WIND       PRES   REMARKS
KNOXVILLE      MOCLDY    67  57  70 S7        30.29S
OAK RIDGE      CLOUDY    69  59  70 VRB3      30.31S
DOWNTOWN KNOXV CLOUDY    68  57  68 CALM      30.30S
GATLINBURG     CLOUDY    68  54  60 VRB3      30.30F
MORRISTOWN     CLOUDY    68  52  56 SE3       30.31S
JACKSBORO      CLOUDY    70  57  64 S8G14     30.33F
$$

TNZ083-085-099-210500-
SOUTHEAST TENNESSEE

CITY           SKY/WX    TMP DP  RH WIND       PRES   REMARKS
CHATTANOOGA    MOCLDY    69  61  75 S12       30.31R
$$

SKY/WX REPORTED AS FAIR MEANS FEW OR NO CLOUDS BELOW
12 THOUSAND FEET.





USA.gov is the U.S. government's official web portal to all federal, state and local government web resources and services.